Time,TemperatureF,DewpointF,PressureIn,WindDirection,WindDirectionDegrees,WindSpeedMPH,WindSpeedGustMPH,Humidity,HourlyPrecipIn,Conditions,Clouds,dailyrainin,SolarRadiationWatts/m^2,SoftwareType,DateUTC
2013-06-26 00:12:00,83.0,74.0,-100.00,SE,136,4.0,16.0,75,0.00,,,0.07,0.000000,,2013-06-26 04:12:00,
2013-06-26 00:22:00,83.0,74.0,-100.00,SE,136,4.0,16.0,75,0.00,,,0.07,0.000000,,2013-06-26 04:22:00,
2013-06-26 00:33:00,83.0,74.0,-100.00,SE,136,4.0,16.0,75,0.00,,,0.07,0.000000,,2013-06-26 04:33:00,
2013-06-26 01:02:00,81.0,74.0,-100.00,SSE,166,6.0,14.0,79,0.00,,,0.07,0.000000,,2013-06-26 05:02:00,
2013-06-26 01:11:00,81.0,74.0,-100.00,SSE,166,6.0,14.0,79,0.00,,,0.07,0.000000,,2013-06-26 05:11:00,
2013-06-26 01:22:00,81.0,74.0,-100.00,SSE,166,6.0,14.0,79,0.00,,,0.07,0.000000,,2013-06-26 05:22:00,
2013-06-26 01:34:00,81.0,74.0,-100.00,SSE,166,6.0,14.0,79,0.00,,,0.07,0.000000,,2013-06-26 05:34:00,
2013-06-26 02:02:00,82.0,72.0,-100.00,SE,131,6.0,13.0,73,0.00,,,0.07,0.000000,,2013-06-26 06:02:00,
2013-06-26 02:11:00,82.0,72.0,-100.00,SE,131,6.0,13.0,73,0.00,,,0.07,0.000000,,2013-06-26 06:11:00,
2013-06-26 02:22:00,82.0,72.0,-100.00,SE,131,6.0,13.0,73,0.00,,,0.07,0.000000,,2013-06-26 06:22:00,
2013-06-26 02:34:00,82.0,72.0,-100.00,SE,131,6.0,13.0,73,0.00,,,0.07,0.000000,,2013-06-26 06:34:00,
2013-06-26 03:01:00,82.0,72.0,-100.00,SE,138,7.0,14.0,73,0.00,,,0.07,0.000000,,2013-06-26 07:01:00,
2013-06-26 03:11:00,82.0,72.0,-100.00,SE,138,7.0,14.0,73,0.00,,,0.07,0.000000,,2013-06-26 07:11:00,
2013-06-26 03:22:00,82.0,72.0,-100.00,SE,138,7.0,14.0,73,0.00,,,0.07,0.000000,,2013-06-26 07:22:00,
2013-06-26 03:33:00,82.0,72.0,-100.00,SE,138,7.0,14.0,73,0.00,,,0.07,0.000000,,2013-06-26 07:33:00,
2013-06-26 04:01:00,82.0,74.0,-100.00,SE,131,5.0,11.0,76,0.00,,,0.01,0.000000,,2013-06-26 08:01:00,
2013-06-26 04:11:00,82.0,74.0,-100.00,SE,131,5.0,11.0,76,0.00,,,0.01,0.000000,,2013-06-26 08:11:00,
2013-06-26 04:22:00,82.0,74.0,-100.00,SE,131,5.0,11.0,76,0.00,,,0.01,0.000000,,2013-06-26 08:22:00,
2013-06-26 04:33:00,82.0,74.0,-100.00,SE,131,5.0,11.0,76,0.00,,,0.01,0.000000,,2013-06-26 08:33:00,
2013-06-26 05:01:00,82.0,74.0,-100.00,SE,143,4.0,11.0,78,0.00,,,0.01,0.000000,,2013-06-26 09:01:00,
2013-06-26 05:11:00,82.0,74.0,-100.00,SE,143,4.0,11.0,78,0.00,,,0.01,0.000000,,2013-06-26 09:11:00,
2013-06-26 05:22:00,82.0,74.0,-100.00,SE,143,4.0,11.0,78,0.00,,,0.01,0.000000,,2013-06-26 09:22:00,
2013-06-26 05:33:00,82.0,74.0,-100.00,SE,143,4.0,11.0,78,0.00,,,0.01,0.000000,,2013-06-26 09:33:00,
2013-06-26 06:01:00,79.0,75.0,-100.00,SE,133,3.0,13.0,88,0.01,,,0.02,0.000000,,2013-06-26 10:01:00,
2013-06-26 06:12:00,79.0,75.0,-100.00,SE,133,3.0,13.0,88,0.01,,,0.02,0.000000,,2013-06-26 10:12:00,
2013-06-26 06:22:00,79.0,75.0,-100.00,SE,133,3.0,13.0,88,0.01,,,0.02,0.000000,,2013-06-26 10:22:00,
2013-06-26 06:34:00,79.0,75.0,-100.00,SE,133,3.0,13.0,88,0.01,,,0.02,0.000000,,2013-06-26 10:34:00,
2013-06-26 07:02:00,78.0,74.0,-100.00,SE,146,3.0,5.0,89,0.00,,,0.02,0.000000,,2013-06-26 11:02:00,
2013-06-26 07:12:00,78.0,74.0,-100.00,SE,146,3.0,5.0,89,0.00,,,0.02,0.000000,,2013-06-26 11:12:00,
2013-06-26 07:22:00,78.0,74.0,-100.00,SE,146,3.0,5.0,89,0.00,,,0.02,0.000000,,2013-06-26 11:22:00,
2013-06-26 07:33:00,78.0,74.0,-100.00,SE,146,3.0,5.0,89,0.00,,,0.02,0.000000,,2013-06-26 11:33:00,
2013-06-26 08:12:00,81.0,75.0,-100.00,SE,142,4.0,7.0,81,0.00,,,0.02,38.000000,,2013-06-26 12:12:00,
2013-06-26 08:22:00,81.0,75.0,-100.00,SE,142,4.0,7.0,81,0.00,,,0.02,38.000000,,2013-06-26 12:22:00,
2013-06-26 08:33:00,81.0,75.0,-100.00,SE,142,4.0,7.0,81,0.00,,,0.02,38.000000,,2013-06-26 12:33:00,
2013-06-26 09:11:00,84.0,74.0,-100.00,SE,125,6.0,10.0,73,0.00,,,0.02,147.000000,,2013-06-26 13:11:00,
2013-06-26 09:23:00,84.0,74.0,-100.00,SE,125,6.0,10.0,73,0.00,,,0.02,147.000000,,2013-06-26 13:23:00,
2013-06-26 09:34:00,84.0,74.0,-100.00,SE,125,6.0,10.0,73,0.00,,,0.02,147.000000,,2013-06-26 13:34:00,
2013-06-26 10:02:00,88.0,76.0,-100.00,ESE,120,7.0,13.0,67,0.00,,,0.01,362.000000,,2013-06-26 14:02:00,
2013-06-26 10:12:00,88.0,76.0,-100.00,ESE,120,7.0,13.0,67,0.00,,,0.01,362.000000,,2013-06-26 14:12:00,
2013-06-26 10:24:00,88.0,76.0,-100.00,ESE,120,7.0,13.0,67,0.00,,,0.01,362.000000,,2013-06-26 14:24:00,
2013-06-26 10:34:00,88.0,76.0,-100.00,ESE,120,7.0,13.0,67,0.00,,,0.01,362.000000,,2013-06-26 14:34:00,
2013-06-26 11:02:00,83.0,73.0,-100.00,ESE,103,7.0,15.0,73,0.01,,,0.02,370.000000,,2013-06-26 15:02:00,
2013-06-26 11:12:00,83.0,73.0,-100.00,ESE,103,7.0,15.0,73,0.01,,,0.02,370.000000,,2013-06-26 15:12:00,
2013-06-26 11:22:00,83.0,73.0,-100.00,ESE,103,7.0,15.0,73,0.01,,,0.02,370.000000,,2013-06-26 15:22:00,
2013-06-26 11:34:00,83.0,73.0,-100.00,ESE,103,7.0,15.0,73,0.01,,,0.02,370.000000,,2013-06-26 15:34:00,
2013-06-26 12:11:00,86.0,75.0,-100.00,ESE,108,5.0,12.0,69,0.00,,,0.02,295.000000,,2013-06-26 16:11:00,
2013-06-26 12:22:00,86.0,75.0,-100.00,ESE,108,5.0,12.0,69,0.00,,,0.02,295.000000,,2013-06-26 16:22:00,
2013-06-26 12:34:00,86.0,75.0,-100.00,ESE,108,5.0,12.0,69,0.00,,,0.02,295.000000,,2013-06-26 16:34:00,
2013-06-26 13:11:00,82.0,77.0,-100.00,SSE,160,4.0,15.0,85,0.08,,,0.10,259.000000,,2013-06-26 17:11:00,
2013-06-26 13:23:00,82.0,77.0,-100.00,SSE,160,4.0,15.0,85,0.08,,,0.10,259.000000,,2013-06-26 17:23:00,
2013-06-26 13:33:00,82.0,77.0,-100.00,SSE,160,4.0,15.0,85,0.08,,,0.10,259.000000,,2013-06-26 17:33:00,
2013-06-26 14:12:00,86.0,77.0,-100.00,SE,133,4.0,9.0,75,0.00,,,0.10,334.000000,,2013-06-26 18:12:00,
2013-06-26 14:22:00,86.0,77.0,-100.00,SE,133,4.0,9.0,75,0.00,,,0.10,334.000000,,2013-06-26 18:22:00,
2013-06-26 14:34:00,86.0,77.0,-100.00,SE,133,4.0,9.0,75,0.00,,,0.10,334.000000,,2013-06-26 18:34:00,
2013-06-26 15:11:00,86.0,76.0,-100.00,SE,144,7.0,13.0,72,0.00,,,0.10,404.000000,,2013-06-26 19:11:00,
2013-06-26 15:22:00,86.0,76.0,-100.00,SE,144,7.0,13.0,72,0.00,,,0.10,404.000000,,2013-06-26 19:22:00,
2013-06-26 15:33:00,86.0,76.0,-100.00,SE,144,7.0,13.0,72,0.00,,,0.10,404.000000,,2013-06-26 19:33:00,
2013-06-26 16:12:00,85.0,75.0,-100.00,SE,137,8.0,16.0,71,0.00,,,0.10,471.000000,,2013-06-26 20:12:00,
2013-06-26 16:22:00,85.0,75.0,-100.00,SE,137,8.0,16.0,71,0.00,,,0.10,471.000000,,2013-06-26 20:22:00,
2013-06-26 16:34:00,85.0,75.0,-100.00,SE,137,8.0,16.0,71,0.00,,,0.10,471.000000,,2013-06-26 20:34:00,
2013-06-26 17:12:00,88.0,76.0,-100.00,SE,142,6.0,14.0,67,0.00,,,0.10,554.000000,,2013-06-26 21:12:00,
2013-06-26 17:23:00,88.0,76.0,-100.00,SE,142,6.0,14.0,67,0.00,,,0.10,554.000000,,2013-06-26 21:23:00,
2013-06-26 17:33:00,88.0,76.0,-100.00,SE,142,6.0,14.0,67,0.00,,,0.10,554.000000,,2013-06-26 21:33:00,
2013-06-26 18:11:00,87.0,76.0,-100.00,SE,128,6.0,13.0,71,0.00,,,0.10,418.000000,,2013-06-26 22:11:00,
2013-06-26 18:22:00,87.0,76.0,-100.00,SE,128,6.0,13.0,71,0.00,,,0.10,418.000000,,2013-06-26 22:22:00,
2013-06-26 18:34:00,87.0,76.0,-100.00,SE,128,6.0,13.0,71,0.00,,,0.10,418.000000,,2013-06-26 22:34:00,
2013-06-26 19:02:00,84.0,75.0,-100.00,ESE,122,5.0,11.0,75,0.00,,,0.10,283.000000,,2013-06-26 23:02:00,
2013-06-26 19:12:00,84.0,75.0,-100.00,ESE,122,5.0,11.0,75,0.00,,,0.10,283.000000,,2013-06-26 23:12:00,
2013-06-26 19:22:00,84.0,75.0,-100.00,ESE,122,5.0,11.0,75,0.00,,,0.10,283.000000,,2013-06-26 23:22:00,
2013-06-26 19:34:00,84.0,75.0,-100.00,ESE,122,5.0,11.0,75,0.00,,,0.10,283.000000,,2013-06-26 23:34:00,
2013-06-26 20:01:00,83.0,74.0,-100.00,ESE,115,4.0,10.0,74,0.00,,,0.10,29.000000,,2013-06-27 00:01:00,
2013-06-26 20:12:00,83.0,74.0,-100.00,ESE,115,4.0,10.0,74,0.00,,,0.10,29.000000,,2013-06-27 00:12:00,
2013-06-26 20:22:00,83.0,74.0,-100.00,ESE,115,4.0,10.0,74,0.00,,,0.10,29.000000,,2013-06-27 00:22:00,
2013-06-26 20:33:00,83.0,74.0,-100.00,ESE,115,4.0,10.0,74,0.00,,,0.10,29.000000,,2013-06-27 00:33:00,
2013-06-26 21:01:00,83.0,73.0,-100.00,East,96,5.0,11.0,73,0.00,,,0.10,7.000000,,2013-06-27 01:01:00,
2013-06-26 21:11:00,83.0,73.0,-100.00,East,96,5.0,11.0,73,0.00,,,0.10,7.000000,,2013-06-27 01:11:00,
2013-06-26 21:22:00,83.0,73.0,-100.00,East,96,5.0,11.0,73,0.00,,,0.10,7.000000,,2013-06-27 01:22:00,
2013-06-26 21:32:00,83.0,73.0,-100.00,East,96,5.0,11.0,73,0.00,,,0.10,7.000000,,2013-06-27 01:32:00,
2013-06-26 22:01:00,82.0,73.0,-100.00,ESE,105,4.0,9.0,74,0.00,,,0.10,0.000000,,2013-06-27 02:01:00,
2013-06-26 22:11:00,82.0,73.0,-100.00,ESE,105,4.0,9.0,74,0.00,,,0.10,0.000000,,2013-06-27 02:11:00,
2013-06-26 22:22:00,82.0,73.0,-100.00,ESE,105,4.0,9.0,74,0.00,,,0.10,0.000000,,2013-06-27 02:22:00,
2013-06-26 22:32:00,82.0,73.0,-100.00,ESE,105,4.0,9.0,74,0.00,,,0.10,0.000000,,2013-06-27 02:32:00,
2013-06-26 23:11:00,82.0,72.0,-100.00,East,100,5.0,9.0,73,0.00,,,0.10,0.000000,,2013-06-27 03:11:00,
2013-06-26 23:21:00,82.0,72.0,-100.00,East,100,5.0,9.0,73,0.00,,,0.10,0.000000,,2013-06-27 03:21:00,
2013-06-26 23:33:00,82.0,72.0,-100.00,East,100,5.0,9.0,73,0.00,,,0.10,0.000000,,2013-06-27 03:33:00,